Skip Page Navigation
NASA JPL Caltech
NASA Logo - Jet Propulsion Laboratory + View the NASA Portal
+ Near-Earth Object (NEO) Program
Search JPL
JPL Home Earth Solar System Stars & Galaxies Technology
JPL Solar System Dynamics
BODIES ORBITS EPHEMERIDES TOOLS PHYSICAL DATA DISCOVERY FAQ SITE MAP
JPL Small-Body Database Browser
Search: [ help ]  
23168 Lauriefletch (2000 GZ136)
Classification: Main-belt Asteroid          SPK-ID: 2023168
Ephemeris | Orbit Diagram | Orbital Elements | Physical Parameters | Discovery Circumstances ]

[ show orbit diagram ]
Orbital Elements at Epoch 2456400.5 (2013-Apr-18.0) TDB
Reference: MPO244387 (heliocentric ecliptic J2000)
 Element Value Uncertainty (1-sigma)   Units 
e 0.0994477 n/a  
a 2.4186415 n/a AU
q 2.1781132 n/a AU
i 7.59083 n/a deg
node 108.79548 n/a deg
peri 35.78460 n/a deg
M 233.76614 n/a deg
tp 2456882.2581149
(2014-Aug-12.75811490)
n/a JED
period 1373.9017516
3.76
n/a
n/a
d
yr
n 0.26202747 n/a deg/d
Q 2.6591698 n/a AU
  Orbit Determination Parameters
   # obs. used (total)      598  
   first obs. used      1992-??-??  
   last obs. used      2012-11-03  
   # oppositions      13  
   planetary ephem.      DE403  
   condition code      0  
   fit RMS      0.55  
   data source      MPC:mpn  
   producer      MPCLINUX  

Additional Information
 T_jup = 3.496 

Ephemeris | Orbit Diagram | Orbital Elements | Physical Parameters | Discovery Circumstances ]

Physical Parameter Table
Parameter Symbol Value Units Sigma Reference Notes
absolute magnitude H 14.8 mag n/a PDS3 (MPO 10230)  

23168 Lauriefletch           Discovered 2000 Apr. 12 by the Lincoln Laboratory Near-Earth Asteroid Research Team in Socorro.
Laurie Lea Fletcher (b. 1989) was awarded second place in the 2007 Intel International Science and Engineering Fair for her environmental management project. She attends the Gold Beach High School, Gold Beach, Oregon, U.S.A.
NOTE: some special characters may not display properly (any characters within {} are an attempt to place the proper accent above a character)
Reference: 20070828/MPCPages.arcLast Updated: 2007-08-30

Alternate Designations
 2000 GZ136 = 1993 OT9 = 1998 XB79 
Ephemeris | Orbit Diagram | Orbital Elements | Physical Parameters | Discovery Circumstances ]
ABOUT SSD CREDITS/AWARDS PRIVACY/COPYRIGHT GLOSSARY LINKS
FirstGov 2013-May-19 20:36 UT
(server date/time)  
NASA Home Page
Site Manager:   Donald K. Yeomans
Webmaster  Alan B. Chamberlin